This is the latest recevied weather packets stored in our database for station/object K0CVS. If no packets are shown the sender has not sent any weather packets the latest 10 day(s).
| Time | Temp. | Humidity | Pressure | Rain* | Wind** | Luminosity | Snow |
|---|---|---|---|---|---|---|---|
| 1778020944 | 10.56° C | 84% | 1011.7 hPa | 0 mm | - | 62 W/m² | - |
| 1778020641 | 10.56° C | 83% | 1011.8 hPa | 0 mm | - | 48 W/m² | - |
| 1778020337 | 10.56° C | 83% | 1011.8 hPa | 0 mm | - | 54 W/m² | - |
| 1778020033 | 10.56° C | 82% | 1012 hPa | 0 mm | - | 61 W/m² | - |
| 1778019729 | 10.56° C | 83% | 1012 hPa | 0 mm | - | 52 W/m² | - |
| 1778019427 | 10.56° C | 83% | 1011.9 hPa | 0 mm | - | 54 W/m² | - |
| 1778019123 | 10.56° C | 82% | 1011.8 hPa | 0 mm | - | 53 W/m² | - |
| 1778018820 | 10.56° C | 83% | 1011.9 hPa | 0 mm | - | 64 W/m² | - |
| 1778018518 | 10.56° C | 82% | 1012 hPa | 0 mm | - | 73 W/m² | - |
| 1778018216 | 10.56° C | 82% | 1012.1 hPa | 0 mm | - | 96 W/m² | - |
| 1778017914 | 10.56° C | 82% | 1011.9 hPa | 1.78 mm | - | 110 W/m² | - |
| 1778017611 | 10.56° C | 81% | 1011.9 hPa | 1.78 mm | - | 97 W/m² | - |
| 1778017308 | 10.56° C | 80% | 1012.1 hPa | 0 mm | - | 62 W/m² | - |
| 1778017006 | 10.56° C | 80% | 1012.1 hPa | 0 mm | - | 62 W/m² | - |
| 1778016703 | 10.56° C | 81% | 1012.1 hPa | 0 mm | - | 90 W/m² | - |
| 1778016398 | 10.56° C | 81% | 1012.1 hPa | 0 mm | - | 96 W/m² | - |
| 1778016096 | 10.56° C | 82% | 1012.3 hPa | 0 mm | - | 123 W/m² | - |
| 1778015793 | 10.56° C | 83% | 1012.4 hPa | 0 mm | - | 105 W/m² | - |
| 1778015490 | 10° C | 83% | 1012.2 hPa | 0 mm | - | 126 W/m² | - |
| 1778015187 | 9.44° C | 85% | 1012.4 hPa | 0 mm | - | 107 W/m² | - |
| 1778014883 | 9.44° C | 84% | 1012.2 hPa | 0 mm | - | 101 W/m² | - |
| 1778014581 | 9.44° C | 85% | 1012.3 hPa | 0 mm | - | 76 W/m² | - |
| 1778014279 | 9.44° C | 85% | 1012.2 hPa | 0 mm | - | 60 W/m² | - |
| 1778013976 | 9.44° C | 86% | 1012.5 hPa | 0 mm | - | 71 W/m² | - |
| 1778013673 | 9.44° C | 86% | 1012.4 hPa | 0 mm | - | 66 W/m² | - |
* Rain latest hour (hover to see other rain measurements)
** Current wind speed in m/s (hover to see current wind gust speed)